Time,TemperatureF,DewpointF,PressureIn,WindDirection,WindDirectionDegrees,WindSpeedMPH,WindSpeedGustMPH,Humidity,HourlyPrecipIn,Conditions,Clouds,dailyrainin,SoftwareType,DateUTC
2013-09-13 00:00:00,64.3,64.0,29.92,NNE,25,5.0,6.0,99,0.06,,SKC,0.65,VWS V14.01,2013-09-13 04:00:00,
2013-09-13 00:01:00,64.3,64.0,29.93,NNW,331,3.0,5.0,99,0.00,,SKC,0.00,VWS V14.01,2013-09-13 04:01:00,
2013-09-13 00:02:00,64.3,64.0,29.93,North,353,3.0,5.0,99,0.01,,SKC,0.01,VWS V14.01,2013-09-13 04:02:00,
2013-09-13 00:07:00,64.3,64.0,29.92,North,8,2.0,5.0,99,0.01,,SKC,0.01,VWS V14.01,2013-09-13 04:07:00,
2013-09-13 00:12:00,64.3,64.0,29.92,NNE,15,4.0,5.0,99,0.02,,SKC,0.02,VWS V14.01,2013-09-13 04:12:00,
2013-09-13 00:17:00,64.4,64.1,29.92,NNW,339,2.0,5.0,99,0.03,,SKC,0.03,VWS V14.01,2013-09-13 04:17:00,
2013-09-13 00:22:00,64.5,64.2,29.92,NE,41,1.0,5.0,99,0.03,,SKC,0.03,VWS V14.01,2013-09-13 04:22:00,
2013-09-13 00:27:00,64.5,64.2,29.92,NNE,15,2.0,5.0,99,0.04,,SKC,0.04,VWS V14.01,2013-09-13 04:27:00,
2013-09-13 00:30:00,64.5,64.2,29.91,NE,56,3.0,5.0,99,0.04,,SKC,0.04,VWS V14.01,2013-09-13 04:30:00,
2013-09-13 00:32:00,64.5,64.2,29.91,NNE,23,2.0,4.0,99,0.05,,SKC,0.05,VWS V14.01,2013-09-13 04:32:00,
2013-09-13 00:36:00,64.6,64.3,29.91,ENE,60,1.0,4.0,99,0.05,,SKC,0.05,VWS V14.01,2013-09-13 04:36:00,
2013-09-13 00:41:00,64.6,64.3,29.90,ENE,60,1.0,4.0,99,0.05,,SKC,0.05,VWS V14.01,2013-09-13 04:41:00,
2013-09-13 00:46:00,64.5,64.2,29.90,ENE,60,0.0,4.0,99,0.05,,SKC,0.05,VWS V14.01,2013-09-13 04:46:00,
2013-09-13 00:51:00,64.5,64.2,29.90,ENE,60,0.0,4.0,99,0.05,,SKC,0.05,VWS V14.01,2013-09-13 04:51:00,
2013-09-13 00:56:00,64.5,64.2,29.90,ENE,60,0.0,4.0,99,0.05,,SKC,0.05,VWS V14.01,2013-09-13 04:56:00,
2013-09-13 01:00:00,64.4,64.1,29.90,ENE,60,0.0,4.0,99,0.05,,SKC,0.05,VWS V14.01,2013-09-13 05:00:00,
2013-09-13 01:01:00,64.4,64.1,29.90,ENE,60,0.0,1.0,99,0.05,,SKC,0.05,VWS V14.01,2013-09-13 05:01:00,
2013-09-13 01:06:00,64.4,64.1,29.90,WSW,245,1.0,2.0,99,0.05,,SKC,0.05,VWS V14.01,2013-09-13 05:06:00,
2013-09-13 01:11:00,64.3,64.0,29.90,SW,236,0.0,2.0,99,0.05,,SKC,0.05,VWS V14.01,2013-09-13 05:11:00,
2013-09-13 01:16:00,64.3,64.0,29.90,SW,236,0.0,2.0,99,0.05,,SKC,0.05,VWS V14.01,2013-09-13 05:16:00,
2013-09-13 01:21:00,64.2,63.9,29.90,SW,236,0.0,2.0,99,0.05,,SKC,0.05,VWS V14.01,2013-09-13 05:21:00,
2013-09-13 01:26:00,64.2,63.9,29.90,SW,236,0.0,2.0,99,0.05,,SKC,0.05,VWS V14.01,2013-09-13 05:26:00,
2013-09-13 01:30:00,64.1,63.8,29.90,NE,34,0.0,2.0,99,0.05,,SKC,0.05,VWS V14.01,2013-09-13 05:30:00,
2013-09-13 01:31:00,64.1,63.8,29.90,SW,225,1.0,1.0,99,0.01,,SKC,0.05,VWS V14.01,2013-09-13 05:31:00,
2013-09-13 01:36:00,64.0,63.7,29.89,SSW,203,0.0,1.0,99,0.01,,SKC,0.05,VWS V14.01,2013-09-13 05:36:00,
2013-09-13 01:41:00,63.9,63.6,29.89,SSW,204,0.0,1.0,99,0.01,,SKC,0.05,VWS V14.01,2013-09-13 05:41:00,
2013-09-13 01:46:00,63.8,63.5,29.89,SSW,204,0.0,1.0,99,0.01,,SKC,0.05,VWS V14.01,2013-09-13 05:46:00,
2013-09-13 01:51:00,63.8,63.5,29.89,SSW,204,0.0,1.0,99,0.01,,SKC,0.05,VWS V14.01,2013-09-13 05:51:00,
2013-09-13 01:56:00,63.7,63.4,29.89,SSE,155,1.0,2.0,99,0.01,,SKC,0.05,VWS V14.01,2013-09-13 05:56:00,
2013-09-13 02:00:00,63.6,63.3,29.88,SSE,155,0.0,2.0,99,0.01,,SKC,0.05,VWS V14.01,2013-09-13 06:00:00,
2013-09-13 02:01:00,63.6,63.3,29.88,SSE,155,0.0,0.0,99,0.00,,SKC,0.05,VWS V14.01,2013-09-13 06:01:00,
2013-09-13 02:06:00,63.5,63.2,29.88,SSE,155,0.0,1.0,99,0.00,,SKC,0.05,VWS V14.01,2013-09-13 06:06:00,
2013-09-13 02:11:00,63.5,63.2,29.88,ENE,75,1.0,2.0,99,0.00,,SKC,0.05,VWS V14.01,2013-09-13 06:11:00,
2013-09-13 02:16:00,63.4,63.1,29.88,ENE,58,0.0,3.0,99,0.00,,SKC,0.05,VWS V14.01,2013-09-13 06:16:00,
2013-09-13 02:21:00,63.3,63.0,29.88,ENE,57,1.0,3.0,99,0.00,,SKC,0.05,VWS V14.01,2013-09-13 06:21:00,
2013-09-13 02:26:00,63.3,63.0,29.88,ENE,57,0.0,3.0,99,0.00,,SKC,0.05,VWS V14.01,2013-09-13 06:26:00,
2013-09-13 02:30:00,63.2,62.9,29.88,ENE,57,0.0,3.0,99,0.00,,SKC,0.05,VWS V14.01,2013-09-13 06:30:00,
2013-09-13 02:31:00,63.1,62.8,29.88,NE,56,0.0,0.0,99,0.00,,SKC,0.05,VWS V14.01,2013-09-13 06:31:00,
2013-09-13 02:36:00,63.1,62.8,29.87,ENE,57,0.0,1.0,99,0.00,,SKC,0.05,VWS V14.01,2013-09-13 06:36:00,
2013-09-13 02:41:00,63.0,62.7,29.87,ENE,57,0.0,1.0,99,0.00,,SKC,0.05,VWS V14.01,2013-09-13 06:41:00,
2013-09-13 02:46:00,62.9,62.6,29.87,ENE,57,1.0,1.0,99,0.00,,SKC,0.05,VWS V14.01,2013-09-13 06:46:00,
2013-09-13 02:51:00,62.8,62.8,29.87,ESE,123,1.0,1.0,100,0.00,,SKC,0.05,VWS V14.01,2013-09-13 06:51:00,
2013-09-13 02:56:00,62.7,62.7,29.87,ESE,122,1.0,1.0,100,0.00,,SKC,0.05,VWS V14.01,2013-09-13 06:56:00,
2013-09-13 03:00:00,62.7,62.7,29.87,SSE,165,0.0,2.0,100,0.00,,SKC,0.05,VWS V14.01,2013-09-13 07:00:00,
2013-09-13 03:01:00,62.6,62.6,29.87,SSE,165,0.0,0.0,100,0.00,,SKC,0.05,VWS V14.01,2013-09-13 07:01:00,
2013-09-13 03:06:00,62.4,62.1,29.87,SSE,165,0.0,0.0,99,0.00,,SKC,0.05,VWS V14.01,2013-09-13 07:06:00,
2013-09-13 03:11:00,62.4,62.4,29.87,SSE,165,0.0,0.0,100,0.00,,SKC,0.05,VWS V14.01,2013-09-13 07:11:00,
2013-09-13 03:16:00,62.3,62.3,29.86,SSE,165,0.0,0.0,100,0.00,,SKC,0.05,VWS V14.01,2013-09-13 07:16:00,
2013-09-13 03:21:00,62.1,62.1,29.86,SSE,165,0.0,0.0,100,0.00,,SKC,0.05,VWS V14.01,2013-09-13 07:21:00,
2013-09-13 03:26:00,62.0,62.0,29.86,SSE,165,0.0,0.0,100,0.00,,SKC,0.05,VWS V14.01,2013-09-13 07:26:00,
2013-09-13 03:30:00,62.0,62.0,29.86,SSE,165,0.0,0.0,100,0.00,,SKC,0.05,VWS V14.01,2013-09-13 07:30:00,
2013-09-13 03:31:00,61.9,61.9,29.86,SSE,165,0.0,1.0,100,0.00,,SKC,0.05,VWS V14.01,2013-09-13 07:31:00,
2013-09-13 03:36:00,61.8,61.8,29.86,WSW,250,0.0,1.0,100,0.00,,SKC,0.05,VWS V14.01,2013-09-13 07:36:00,
2013-09-13 03:41:00,61.8,61.8,29.86,NNE,22,1.0,2.0,100,0.00,,SKC,0.05,VWS V14.01,2013-09-13 07:41:00,
2013-09-13 03:46:00,61.8,61.8,29.86,NNE,29,1.0,2.0,100,0.00,,SKC,0.05,VWS V14.01,2013-09-13 07:46:00,
2013-09-13 03:51:00,62.0,62.0,29.86,North,1,1.0,2.0,100,0.00,,SKC,0.05,VWS V14.01,2013-09-13 07:51:00,
2013-09-13 03:56:00,62.0,62.0,29.86,North,1,0.0,2.0,100,0.00,,SKC,0.05,VWS V14.01,2013-09-13 07:56:00,
2013-09-13 04:00:00,62.1,62.1,29.86,North,1,0.0,2.0,100,0.00,,SKC,0.05,VWS V14.01,2013-09-13 08:00:00,
2013-09-13 04:01:00,62.1,62.1,29.86,North,1,0.0,1.0,100,0.00,,SKC,0.05,VWS V14.01,2013-09-13 08:01:00,
2013-09-13 04:06:00,62.1,62.1,29.86,North,360,1.0,2.0,100,0.00,,SKC,0.05,VWS V14.01,2013-09-13 08:06:00,
2013-09-13 04:11:00,62.1,62.1,29.86,North,6,0.0,2.0,100,0.00,,SKC,0.05,VWS V14.01,2013-09-13 08:11:00,
2013-09-13 04:16:00,62.1,62.1,29.85,NNE,25,0.0,2.0,100,0.00,,SKC,0.05,VWS V14.01,2013-09-13 08:16:00,
2013-09-13 04:21:00,62.0,62.0,29.85,NNE,26,0.0,2.0,100,0.00,,SKC,0.05,VWS V14.01,2013-09-13 08:21:00,
2013-09-13 04:26:00,62.0,62.0,29.85,NE,34,1.0,2.0,100,0.00,,SKC,0.05,VWS V14.01,2013-09-13 08:26:00,
2013-09-13 04:30:00,62.0,62.0,29.85,NE,34,0.0,2.0,100,0.00,,SKC,0.05,VWS V14.01,2013-09-13 08:30:00,
2013-09-13 04:31:00,62.0,62.0,29.85,NE,34,0.0,0.0,100,0.00,,SKC,0.05,VWS V14.01,2013-09-13 08:31:00,
2013-09-13 04:36:00,62.0,62.0,29.86,NNW,345,1.0,2.0,100,0.00,,SKC,0.05,VWS V14.01,2013-09-13 08:36:00,
2013-09-13 04:41:00,62.0,62.0,29.86,NNW,348,1.0,3.0,100,0.00,,SKC,0.05,VWS V14.01,2013-09-13 08:41:00,
2013-09-13 04:46:00,62.3,62.3,29.86,NE,43,1.0,3.0,100,0.00,,SKC,0.05,VWS V14.01,2013-09-13 08:46:00,
2013-09-13 04:51:00,62.4,62.4,29.86,NE,53,2.0,3.0,100,0.00,,SKC,0.05,VWS V14.01,2013-09-13 08:51:00,
2013-09-13 04:56:00,62.5,62.5,29.86,ENE,58,0.0,3.0,100,0.00,,SKC,0.05,VWS V14.01,2013-09-13 08:56:00,
2013-09-13 05:00:00,62.6,62.6,29.86,ENE,58,1.0,3.0,100,0.00,,SKC,0.05,VWS V14.01,2013-09-13 09:00:00,
2013-09-13 05:01:00,62.6,62.6,29.86,ENE,58,0.0,2.0,100,0.00,,SKC,0.05,VWS V14.01,2013-09-13 09:01:00,
2013-09-13 05:06:00,62.5,62.5,29.86,ENE,58,1.0,2.0,100,0.00,,SKC,0.05,VWS V14.01,2013-09-13 09:06:00,
2013-09-13 05:11:00,62.5,62.5,29.86,NE,48,2.0,3.0,100,0.00,,SKC,0.05,VWS V14.01,2013-09-13 09:11:00,
2013-09-13 05:16:00,62.4,62.4,29.86,North,9,1.0,3.0,100,0.00,,SKC,0.05,VWS V14.01,2013-09-13 09:16:00,
2013-09-13 05:21:00,62.5,62.5,29.86,NNE,25,0.0,3.0,100,0.00,,SKC,0.05,VWS V14.01,2013-09-13 09:21:00,
2013-09-13 05:26:00,62.4,62.4,29.86,NNE,25,1.0,3.0,100,0.00,,SKC,0.05,VWS V14.01,2013-09-13 09:26:00,
2013-09-13 05:30:00,62.4,62.4,29.86,NNE,32,0.0,3.0,100,0.00,,SKC,0.05,VWS V14.01,2013-09-13 09:30:00,
2013-09-13 05:31:00,62.3,62.3,29.86,NNE,31,0.0,0.0,100,0.00,,SKC,0.05,VWS V14.01,2013-09-13 09:31:00,
2013-09-13 05:36:00,62.3,62.3,29.86,NE,51,2.0,3.0,100,0.00,,SKC,0.05,VWS V14.01,2013-09-13 09:36:00,
2013-09-13 05:41:00,62.3,62.3,29.86,North,353,1.0,4.0,100,0.00,,SKC,0.05,VWS V14.01,2013-09-13 09:41:00,
2013-09-13 05:46:00,62.5,62.5,29.86,NNE,26,2.0,7.0,100,0.00,,SKC,0.05,VWS V14.01,2013-09-13 09:46:00,
2013-09-13 05:51:00,62.9,62.9,29.86,North,358,6.0,7.0,100,0.00,,SKC,0.05,VWS V14.01,2013-09-13 09:51:00,
2013-09-13 05:56:00,63.0,63.0,29.86,NNW,340,5.0,9.0,100,0.00,,SKC,0.05,VWS V14.01,2013-09-13 09:56:00,
2013-09-13 06:00:00,63.0,63.0,29.86,NNW,339,3.0,9.0,100,0.00,,SKC,0.05,VWS V14.01,2013-09-13 10:00:00,
2013-09-13 06:01:00,63.1,63.1,29.87,North,351,2.0,7.0,100,0.00,,SKC,0.05,VWS V14.01,2013-09-13 10:01:00,
2013-09-13 06:06:00,63.1,63.1,29.87,NW,326,1.0,7.0,100,0.00,,SKC,0.05,VWS V14.01,2013-09-13 10:06:00,
2013-09-13 06:11:00,63.1,63.1,29.87,NW,321,5.0,7.0,100,0.00,,SKC,0.05,VWS V14.01,2013-09-13 10:11:00,
2013-09-13 06:16:00,63.1,63.1,29.87,NE,44,0.0,7.0,100,0.00,,SKC,0.05,VWS V14.01,2013-09-13 10:16:00,
2013-09-13 06:21:00,63.1,63.1,29.88,NNW,333,3.0,7.0,100,0.00,,SKC,0.05,VWS V14.01,2013-09-13 10:21:00,
2013-09-13 06:26:00,63.1,63.1,29.87,NW,314,2.0,7.0,100,0.00,,SKC,0.05,VWS V14.01,2013-09-13 10:26:00,
2013-09-13 06:30:00,63.1,63.1,29.87,NW,317,0.0,7.0,100,0.00,,SKC,0.05,VWS V14.01,2013-09-13 10:30:00,
2013-09-13 06:31:00,63.0,63.0,29.88,NW,316,2.0,2.0,100,0.00,,SKC,0.05,VWS V14.01,2013-09-13 10:31:00,
2013-09-13 06:36:00,63.0,63.0,29.87,NNW,332,1.0,3.0,100,0.00,,SKC,0.05,VWS V14.01,2013-09-13 10:36:00,
2013-09-13 06:41:00,62.9,62.9,29.88,NW,319,2.0,3.0,100,0.00,,SKC,0.05,VWS V14.01,2013-09-13 10:41:00,
2013-09-13 06:46:00,62.9,62.9,29.87,NW,316,1.0,3.0,100,0.00,,SKC,0.05,VWS V14.01,2013-09-13 10:46:00,
2013-09-13 06:51:00,62.8,62.8,29.88,WNW,300,0.0,3.0,100,0.00,,SKC,0.05,VWS V14.01,2013-09-13 10:51:00,
2013-09-13 06:56:00,62.7,62.7,29.88,WNW,300,0.0,3.0,100,0.00,,SKC,0.05,VWS V14.01,2013-09-13 10:56:00,
2013-09-13 07:00:00,62.7,62.7,29.88,NW,314,1.0,3.0,100,0.00,,SKC,0.05,VWS V14.01,2013-09-13 11:00:00,
2013-09-13 07:01:00,62.7,62.7,29.88,NW,313,1.0,1.0,100,0.00,,SKC,0.05,VWS V14.01,2013-09-13 11:01:00,
2013-09-13 07:06:00,62.6,62.6,29.88,NNE,22,0.0,1.0,100,0.00,,SKC,0.05,VWS V14.01,2013-09-13 11:06:00,
2013-09-13 07:11:00,62.7,62.7,29.88,NNW,343,2.0,2.0,100,0.00,,SKC,0.05,VWS V14.01,2013-09-13 11:11:00,
2013-09-13 07:16:00,62.6,62.6,29.88,NNE,15,0.0,2.0,100,0.00,,SKC,0.05,VWS V14.01,2013-09-13 11:16:00,
2013-09-13 07:21:00,62.5,62.5,29.88,NNE,15,0.0,2.0,100,0.00,,SKC,0.05,VWS V14.01,2013-09-13 11:21:00,
2013-09-13 07:26:00,62.5,62.5,29.88,NNE,15,0.0,2.0,100,0.00,,SKC,0.05,VWS V14.01,2013-09-13 11:26:00,
2013-09-13 07:30:00,62.5,62.5,29.88,NNE,15,0.0,2.0,100,0.00,,SKC,0.05,VWS V14.01,2013-09-13 11:30:00,
2013-09-13 07:31:00,62.5,62.5,29.88,NNE,15,1.0,1.0,100,0.00,,SKC,0.05,VWS V14.01,2013-09-13 11:31:00,
2013-09-13 07:36:00,62.3,62.3,29.88,NNE,16,0.0,1.0,100,0.00,,SKC,0.05,VWS V14.01,2013-09-13 11:36:00,
2013-09-13 07:41:00,62.1,62.1,29.88,NNE,15,0.0,1.0,100,0.00,,SKC,0.05,VWS V14.01,2013-09-13 11:41:00,
2013-09-13 07:46:00,62.1,62.1,29.89,NE,41,0.0,2.0,100,0.01,,SKC,0.06,VWS V14.01,2013-09-13 11:46:00,
2013-09-13 07:51:00,62.0,62.0,29.89,NE,41,0.0,2.0,100,0.01,,SKC,0.06,VWS V14.01,2013-09-13 11:51:00,
2013-09-13 07:56:00,62.1,62.1,29.89,NE,41,0.0,2.0,100,0.01,,SKC,0.06,VWS V14.01,2013-09-13 11:56:00,
2013-09-13 08:00:00,62.2,62.2,29.89,WNW,297,1.0,2.0,100,0.01,,SKC,0.06,VWS V14.01,2013-09-13 12:00:00,
2013-09-13 08:01:00,62.2,62.2,29.89,WNW,297,0.0,1.0,100,0.01,,SKC,0.06,VWS V14.01,2013-09-13 12:01:00,
2013-09-13 08:06:00,62.4,62.4,29.88,WNW,296,0.0,1.0,100,0.01,,SKC,0.06,VWS V14.01,2013-09-13 12:06:00,
2013-09-13 08:11:00,62.5,62.5,29.88,SSE,165,0.0,1.0,100,0.01,,SKC,0.06,VWS V14.01,2013-09-13 12:11:00,
2013-09-13 08:16:00,62.6,62.6,29.88,SSE,165,0.0,1.0,100,0.01,,SKC,0.06,VWS V14.01,2013-09-13 12:16:00,
2013-09-13 08:21:00,62.8,62.8,29.89,SSE,165,0.0,1.0,100,0.01,,SKC,0.06,VWS V14.01,2013-09-13 12:21:00,
2013-09-13 08:26:00,62.9,62.9,29.88,SSE,165,0.0,1.0,100,0.01,,SKC,0.06,VWS V14.01,2013-09-13 12:26:00,
2013-09-13 08:30:00,63.0,63.0,29.88,SSE,165,0.0,1.0,100,0.01,,SKC,0.06,VWS V14.01,2013-09-13 12:30:00,
2013-09-13 08:31:00,63.0,63.0,29.88,SSE,165,0.0,1.0,100,0.01,,SKC,0.06,VWS V14.01,2013-09-13 12:31:00,
2013-09-13 08:36:00,63.0,63.0,29.88,SSE,165,0.0,1.0,100,0.01,,SKC,0.06,VWS V14.01,2013-09-13 12:36:00,
2013-09-13 08:41:00,63.3,63.3,29.89,SSE,165,0.0,1.0,100,0.01,,SKC,0.06,VWS V14.01,2013-09-13 12:41:00,
2013-09-13 08:46:00,63.4,63.4,29.88,NNE,25,2.0,2.0,100,0.01,,SKC,0.06,VWS V14.01,2013-09-13 12:46:00,
2013-09-13 08:51:00,63.6,63.6,29.88,North,349,2.0,4.0,100,0.01,,SKC,0.06,VWS V14.01,2013-09-13 12:51:00,
2013-09-13 08:56:00,63.9,63.9,29.88,NNE,16,2.0,4.0,100,0.01,,SKC,0.06,VWS V14.01,2013-09-13 12:56:00,
2013-09-13 09:00:00,63.9,63.9,29.88,NNW,331,2.0,4.0,100,0.01,,SKC,0.06,VWS V14.01,2013-09-13 13:00:00,
2013-09-13 09:01:00,63.9,63.9,29.88,North,9,1.0,2.0,100,0.00,,SKC,0.06,VWS V14.01,2013-09-13 13:01:00,
2013-09-13 09:06:00,64.1,64.1,29.88,NW,319,1.0,3.0,100,0.00,,SKC,0.06,VWS V14.01,2013-09-13 13:06:00,
2013-09-13 09:11:00,64.2,64.2,29.88,NNW,347,4.0,7.0,100,0.00,,SKC,0.06,VWS V14.01,2013-09-13 13:11:00,
2013-09-13 09:16:00,64.3,64.0,29.88,NNW,335,1.0,7.0,99,0.00,,SKC,0.06,VWS V14.01,2013-09-13 13:16:00,
2013-09-13 09:21:00,64.4,63.8,29.88,NNE,25,4.0,7.0,98,0.00,,SKC,0.06,VWS V14.01,2013-09-13 13:21:00,
2013-09-13 09:26:00,64.5,63.6,29.88,North,3,3.0,7.0,97,0.00,,SKC,0.06,VWS V14.01,2013-09-13 13:26:00,
2013-09-13 09:30:00,64.7,63.8,29.88,North,3,4.0,7.0,97,0.00,,SKC,0.06,VWS V14.01,2013-09-13 13:30:00,
2013-09-13 09:31:00,64.8,63.9,29.88,WNW,290,1.0,5.0,97,0.00,,SKC,0.06,VWS V14.01,2013-09-13 13:31:00,
2013-09-13 09:36:00,65.0,63.8,29.88,North,5,1.0,10.0,96,0.00,,SKC,0.06,VWS V14.01,2013-09-13 13:36:00,
2013-09-13 09:41:00,65.2,63.7,29.88,NNE,20,5.0,10.0,95,0.00,,SKC,0.06,VWS V14.01,2013-09-13 13:41:00,
2013-09-13 09:46:00,65.5,63.7,29.88,NNW,329,3.0,11.0,94,0.00,,SKC,0.06,VWS V14.01,2013-09-13 13:46:00,
2013-09-13 09:51:00,65.9,64.1,29.88,WNW,302,3.0,11.0,94,0.00,,SKC,0.06,VWS V14.01,2013-09-13 13:51:00,
2013-09-13 09:56:00,66.2,64.1,29.88,North,353,4.0,11.0,93,0.00,,SKC,0.06,VWS V14.01,2013-09-13 13:56:00,
2013-09-13 10:00:00,66.3,63.3,29.88,NE,39,4.0,11.0,90,0.00,,SKC,0.06,VWS V14.01,2013-09-13 14:00:00,
2013-09-13 10:01:00,66.3,63.3,29.88,NNW,338,4.0,6.0,90,0.00,,SKC,0.06,VWS V14.01,2013-09-13 14:01:00,
2013-09-13 10:06:00,66.4,63.4,29.88,NNW,339,4.0,9.0,90,0.00,,SKC,0.06,VWS V14.01,2013-09-13 14:06:00,
2013-09-13 10:11:00,66.8,63.8,29.88,NNW,330,4.0,9.0,90,0.00,,SKC,0.06,VWS V14.01,2013-09-13 14:11:00,
2013-09-13 10:16:00,67.0,64.3,29.88,NNW,342,7.0,9.0,91,0.00,,SKC,0.06,VWS V14.01,2013-09-13 14:16:00,
2013-09-13 10:21:00,67.1,64.1,29.88,NW,319,4.0,9.0,90,0.00,,SKC,0.06,VWS V14.01,2013-09-13 14:21:00,
2013-09-13 10:26:00,67.1,64.1,29.88,NW,314,4.0,10.0,90,0.00,,SKC,0.06,VWS V14.01,2013-09-13 14:26:00,
2013-09-13 10:30:00,67.3,63.6,29.88,NNE,20,2.0,10.0,88,0.00,,SKC,0.06,VWS V14.01,2013-09-13 14:30:00,
2013-09-13 10:31:00,67.3,63.6,29.88,WNW,297,4.0,6.0,88,0.00,,SKC,0.06,VWS V14.01,2013-09-13 14:31:00,
2013-09-13 10:36:00,67.4,63.1,29.88,NE,34,5.0,9.0,86,0.00,,SKC,0.06,VWS V14.01,2013-09-13 14:36:00,
2013-09-13 10:41:00,67.9,64.2,29.88,NW,323,5.0,9.0,88,0.00,,SKC,0.06,VWS V14.01,2013-09-13 14:41:00,
2013-09-13 10:45:00,67.9,62.5,29.88,WNW,290,3.0,9.0,83,0.00,,SKC,0.06,VWS V14.01,2013-09-13 14:45:00,
2013-09-13 10:50:00,67.9,63.2,29.88,NW,314,2.0,9.0,85,0.00,,SKC,0.06,VWS V14.01,2013-09-13 14:50:00,
2013-09-13 10:55:00,68.3,64.0,29.88,NE,38,3.0,9.0,86,0.00,,SKC,0.06,VWS V14.01,2013-09-13 14:55:00,
2013-09-13 11:00:00,68.7,64.3,29.88,East,79,1.0,5.0,86,0.00,,SKC,0.06,VWS V14.01,2013-09-13 15:00:00,
2013-09-13 11:05:00,68.9,62.8,29.88,NNW,328,6.0,9.0,81,0.00,,SKC,0.06,VWS V14.01,2013-09-13 15:05:00,
2013-09-13 11:10:00,69.1,63.0,29.88,NW,321,5.0,9.0,81,0.00,,SKC,0.06,VWS V14.01,2013-09-13 15:10:00,
2013-09-13 11:15:00,69.5,63.4,29.88,NNE,13,5.0,9.0,81,0.00,,SKC,0.06,VWS V14.01,2013-09-13 15:15:00,
2013-09-13 11:20:00,69.4,63.7,29.88,NNW,340,6.0,9.0,82,0.00,,SKC,0.06,VWS V14.01,2013-09-13 15:20:00,
2013-09-13 11:25:00,69.3,63.2,29.88,NNW,334,5.0,9.0,81,0.00,,SKC,0.06,VWS V14.01,2013-09-13 15:25:00,
2013-09-13 11:30:00,69.4,63.7,29.88,NE,38,5.0,7.0,82,0.00,,SKC,0.06,VWS V14.01,2013-09-13 15:30:00,
2013-09-13 11:35:00,69.9,63.5,29.88,North,3,2.0,8.0,80,0.00,,SKC,0.06,VWS V14.01,2013-09-13 15:35:00,
2013-09-13 11:40:00,70.1,63.3,29.88,WNW,284,3.0,9.0,79,0.00,,SKC,0.06,VWS V14.01,2013-09-13 15:40:00,
2013-09-13 11:45:00,70.2,63.4,29.88,North,359,2.0,9.0,79,0.00,,SKC,0.06,VWS V14.01,2013-09-13 15:45:00,
2013-09-13 11:50:00,70.5,62.6,29.89,West,277,3.0,9.0,76,0.00,,SKC,0.06,VWS V14.01,2013-09-13 15:50:00,
2013-09-13 11:55:00,70.6,63.0,29.89,SSW,197,4.0,9.0,77,0.00,,SKC,0.06,VWS V14.01,2013-09-13 15:55:00,
2013-09-13 12:00:00,70.8,62.5,29.89,NNW,330,5.0,10.0,75,0.00,,SKC,0.06,VWS V14.01,2013-09-13 16:00:00,
2013-09-13 12:05:00,70.5,62.6,29.88,North,6,3.0,10.0,76,0.00,,SKC,0.06,VWS V14.01,2013-09-13 16:05:00,
2013-09-13 12:10:00,71.0,61.5,29.88,NNW,345,8.0,12.0,72,0.00,,SKC,0.06,VWS V14.01,2013-09-13 16:10:00,
2013-09-13 12:15:00,70.9,61.0,29.88,NE,39,4.0,12.0,71,0.00,,SKC,0.06,VWS V14.01,2013-09-13 16:15:00,
2013-09-13 12:20:00,71.0,61.1,29.88,WNW,302,6.0,14.0,71,0.00,,SKC,0.06,VWS V14.01,2013-09-13 16:20:00,
2013-09-13 12:25:00,70.3,60.9,29.88,NW,324,7.0,14.0,72,0.00,,SKC,0.06,VWS V14.01,2013-09-13 16:25:00,
2013-09-13 12:30:00,70.5,61.4,29.88,NNW,347,7.0,10.0,73,0.00,,SKC,0.06,VWS V14.01,2013-09-13 16:30:00,
2013-09-13 12:35:00,70.5,61.8,29.88,North,353,12.0,13.0,74,0.00,,SKC,0.06,VWS V14.01,2013-09-13 16:35:00,
2013-09-13 12:40:00,70.8,60.5,29.88,NNW,334,6.0,13.0,70,0.00,,SKC,0.06,VWS V14.01,2013-09-13 16:40:00,
2013-09-13 12:45:00,70.8,58.9,29.88,SW,232,4.0,13.0,66,0.00,,SKC,0.06,VWS V14.01,2013-09-13 16:45:00,
2013-09-13 12:50:00,71.0,59.9,29.88,North,6,10.0,13.0,68,0.00,,SKC,0.06,VWS V14.01,2013-09-13 16:50:00,
2013-09-13 12:55:00,71.1,60.8,29.88,NNE,22,5.0,14.0,70,0.00,,SKC,0.06,VWS V14.01,2013-09-13 16:55:00,
2013-09-13 13:00:00,70.9,59.8,29.88,North,3,2.0,4.0,68,0.00,,SKC,0.06,VWS V14.01,2013-09-13 17:00:00,
2013-09-13 13:05:00,71.4,59.0,29.88,NW,314,8.0,10.0,65,0.00,,SKC,0.06,VWS V14.01,2013-09-13 17:05:00,
2013-09-13 13:10:00,71.4,58.6,29.88,WNW,289,9.0,10.0,64,0.00,,SKC,0.06,VWS V14.01,2013-09-13 17:10:00,
2013-09-13 13:15:00,71.2,59.3,29.88,NNW,335,1.0,12.0,66,0.00,,SKC,0.06,VWS V14.01,2013-09-13 17:15:00,
2013-09-13 13:20:00,71.1,59.6,29.88,NNW,329,5.0,13.0,67,0.00,,SKC,0.06,VWS V14.01,2013-09-13 17:20:00,
2013-09-13 13:25:00,71.6,60.1,29.88,West,274,3.0,13.0,67,0.00,,SKC,0.06,VWS V14.01,2013-09-13 17:25:00,
2013-09-13 13:30:00,72.1,61.4,29.88,NE,37,3.0,6.0,69,0.00,,SKC,0.06,VWS V14.01,2013-09-13 17:30:00,
2013-09-13 13:35:00,72.4,60.4,29.88,NNE,15,4.0,8.0,66,0.00,,SKC,0.06,VWS V14.01,2013-09-13 17:35:00,
2013-09-13 13:40:00,72.1,59.7,29.88,NW,317,4.0,12.0,65,0.00,,SKC,0.06,VWS V14.01,2013-09-13 17:40:00,
2013-09-13 13:45:00,72.0,59.6,29.88,SW,233,3.0,12.0,65,0.00,,SKC,0.06,VWS V14.01,2013-09-13 17:45:00,
2013-09-13 13:50:00,72.3,58.6,29.88,SSW,205,2.0,17.0,62,0.00,,SKC,0.06,VWS V14.01,2013-09-13 17:50:00,
2013-09-13 13:55:00,72.3,59.0,29.87,NW,304,5.0,17.0,63,0.00,,SKC,0.06,VWS V14.01,2013-09-13 17:55:00,
2013-09-13 14:00:00,72.7,60.3,29.87,West,259,3.0,7.0,65,0.00,,SKC,0.06,VWS V14.01,2013-09-13 18:00:00,
2013-09-13 14:05:00,73.2,59.4,29.87,NW,316,3.0,8.0,62,0.00,,SKC,0.06,VWS V14.01,2013-09-13 18:05:00,
2013-09-13 14:10:00,73.5,59.7,29.86,NNW,330,4.0,9.0,62,0.00,,SKC,0.06,VWS V14.01,2013-09-13 18:10:00,
2013-09-13 14:15:00,72.8,59.0,29.86,NE,42,5.0,12.0,62,0.00,,SKC,0.06,VWS V14.01,2013-09-13 18:15:00,
2013-09-13 14:20:00,72.4,57.8,29.86,NNW,334,10.0,15.0,60,0.00,,SKC,0.06,VWS V14.01,2013-09-13 18:20:00,
2013-09-13 14:25:00,72.1,58.4,29.86,North,360,9.0,15.0,62,0.00,,SKC,0.06,VWS V14.01,2013-09-13 18:25:00,
2013-09-13 14:30:00,72.3,58.6,29.87,SW,215,3.0,3.0,62,0.00,,SKC,0.06,VWS V14.01,2013-09-13 18:30:00,
2013-09-13 14:35:00,72.6,58.4,29.86,NNW,331,3.0,8.0,61,0.00,,SKC,0.06,VWS V14.01,2013-09-13 18:35:00,
2013-09-13 14:40:00,73.1,58.9,29.86,NE,37,3.0,8.0,61,0.00,,SKC,0.06,VWS V14.01,2013-09-13 18:40:00,
2013-09-13 14:45:00,73.2,58.0,29.86,NE,53,9.0,11.0,59,0.00,,SKC,0.06,VWS V14.01,2013-09-13 18:45:00,
2013-09-13 14:50:00,73.0,58.8,29.86,NNE,18,3.0,11.0,61,0.00,,SKC,0.06,VWS V14.01,2013-09-13 18:50:00,
2013-09-13 14:55:00,72.3,58.1,29.86,North,358,4.0,13.0,61,0.00,,SKC,0.06,VWS V14.01,2013-09-13 18:55:00,
2013-09-13 15:00:00,72.0,57.8,29.86,West,263,1.0,5.0,61,0.00,,SKC,0.06,VWS V14.01,2013-09-13 19:00:00,
2013-09-13 15:05:00,72.1,57.9,29.86,North,6,7.0,11.0,61,0.00,,SKC,0.06,VWS V14.01,2013-09-13 19:05:00,
2013-09-13 15:10:00,72.6,57.9,29.85,NNW,338,5.0,15.0,60,0.00,,SKC,0.06,VWS V14.01,2013-09-13 19:10:00,
2013-09-13 15:15:00,72.8,57.7,29.85,NE,35,6.0,15.0,59,0.00,,SKC,0.06,VWS V14.01,2013-09-13 19:15:00,
2013-09-13 15:20:00,72.2,57.6,29.85,NW,319,4.0,16.0,60,0.00,,SKC,0.06,VWS V14.01,2013-09-13 19:20:00,
2013-09-13 15:25:00,72.3,58.6,29.85,NNW,346,3.0,16.0,62,0.00,,SKC,0.06,VWS V14.01,2013-09-13 19:25:00,
2013-09-13 15:30:00,72.6,57.0,29.85,NNW,341,5.0,11.0,58,0.00,,SKC,0.06,VWS V14.01,2013-09-13 19:30:00,
2013-09-13 15:35:00,72.9,58.2,29.85,WNW,297,5.0,14.0,60,0.00,,SKC,0.06,VWS V14.01,2013-09-13 19:35:00,
2013-09-13 15:40:00,72.2,55.2,29.86,NNE,13,6.0,16.0,55,0.00,,SKC,0.06,VWS V14.01,2013-09-13 19:40:00,
2013-09-13 15:45:00,72.0,55.5,29.85,WSW,242,6.0,16.0,56,0.00,,SKC,0.06,VWS V14.01,2013-09-13 19:45:00,
2013-09-13 15:50:00,72.1,55.1,29.85,NNE,20,10.0,16.0,55,0.00,,SKC,0.06,VWS V14.01,2013-09-13 19:50:00,
2013-09-13 15:55:00,72.1,55.1,29.85,NNW,332,7.0,17.0,55,0.00,,SKC,0.06,VWS V14.01,2013-09-13 19:55:00,
2013-09-13 16:00:00,72.1,55.6,29.85,North,10,4.0,5.0,56,0.00,,SKC,0.06,VWS V14.01,2013-09-13 20:00:00,
2013-09-13 16:05:00,72.1,55.6,29.85,North,355,11.0,13.0,56,0.00,,SKC,0.06,VWS V14.01,2013-09-13 20:05:00,
2013-09-13 16:10:00,72.4,56.3,29.85,NNW,346,7.0,13.0,57,0.00,,SKC,0.06,VWS V14.01,2013-09-13 20:10:00,
2013-09-13 16:15:00,72.4,55.8,29.85,NNW,328,5.0,13.0,56,0.00,,SKC,0.06,VWS V14.01,2013-09-13 20:15:00,
2013-09-13 16:20:00,72.3,55.2,29.86,NNE,12,9.0,13.0,55,0.00,,SKC,0.06,VWS V14.01,2013-09-13 20:20:00,
2013-09-13 16:25:00,72.5,56.9,29.86,NNW,347,6.0,13.0,58,0.00,,SKC,0.06,VWS V14.01,2013-09-13 20:25:00,
2013-09-13 16:30:00,72.5,55.9,29.86,North,359,8.0,9.0,56,0.00,,SKC,0.06,VWS V14.01,2013-09-13 20:30:00,
2013-09-13 16:35:00,72.1,54.6,29.86,NE,41,4.0,12.0,54,0.00,,SKC,0.06,VWS V14.01,2013-09-13 20:35:00,
2013-09-13 16:40:00,71.6,54.6,29.86,NW,322,3.0,12.0,55,0.00,,SKC,0.06,VWS V14.01,2013-09-13 20:40:00,
2013-09-13 16:45:00,71.5,55.0,29.86,NNW,330,6.0,12.0,56,0.00,,SKC,0.06,VWS V14.01,2013-09-13 20:45:00,
2013-09-13 16:50:00,71.3,54.3,29.86,North,4,7.0,12.0,55,0.00,,SKC,0.06,VWS V14.01,2013-09-13 20:50:00,
2013-09-13 16:55:00,71.4,53.4,29.86,NNW,327,6.0,12.0,53,0.00,,SKC,0.06,VWS V14.01,2013-09-13 20:55:00,
2013-09-13 17:00:00,71.3,54.3,29.86,North,4,4.0,5.0,55,0.00,,SKC,0.06,VWS V14.01,2013-09-13 21:00:00,
2013-09-13 17:05:00,71.5,54.5,29.86,NNW,331,12.0,12.0,55,0.00,,SKC,0.06,VWS V14.01,2013-09-13 21:05:00,
2013-09-13 17:10:00,71.5,54.0,29.86,NNW,342,9.0,12.0,54,0.00,,SKC,0.06,VWS V14.01,2013-09-13 21:10:00,
2013-09-13 17:15:00,71.6,52.5,29.86,North,6,7.0,13.0,51,0.00,,SKC,0.06,VWS V14.01,2013-09-13 21:15:00,
2013-09-13 17:20:00,71.7,52.1,29.86,NNW,338,2.0,13.0,50,0.00,,SKC,0.06,VWS V14.01,2013-09-13 21:20:00,
2013-09-13 17:25:00,71.8,51.1,29.86,NW,317,4.0,13.0,48,0.00,,SKC,0.06,VWS V14.01,2013-09-13 21:25:00,
2013-09-13 17:30:00,71.8,51.1,29.86,ENE,62,4.0,4.0,48,0.00,,SKC,0.06,VWS V14.01,2013-09-13 21:30:00,
2013-09-13 17:35:00,71.7,49.8,29.86,NW,323,5.0,9.0,46,0.00,,SKC,0.06,VWS V14.01,2013-09-13 21:35:00,
2013-09-13 17:40:00,72.0,51.3,29.86,ENE,60,2.0,9.0,48,0.00,,SKC,0.06,VWS V14.01,2013-09-13 21:40:00,
2013-09-13 17:45:00,71.8,51.6,29.86,NNW,345,1.0,9.0,49,0.00,,SKC,0.06,VWS V14.01,2013-09-13 21:45:00,
2013-09-13 17:50:00,72.1,52.5,29.86,NNE,16,4.0,9.0,50,0.00,,SKC,0.06,VWS V14.01,2013-09-13 21:50:00,
2013-09-13 17:55:00,72.0,52.9,29.86,NNW,344,9.0,9.0,51,0.00,,SKC,0.06,VWS V14.01,2013-09-13 21:55:00,
2013-09-13 18:00:00,71.8,52.2,29.86,NNW,330,5.0,5.0,50,0.00,,SKC,0.06,VWS V14.01,2013-09-13 22:00:00,
2013-09-13 18:05:00,71.6,53.1,29.86,North,6,11.0,11.0,52,0.00,,SKC,0.06,VWS V14.01,2013-09-13 22:05:00,
2013-09-13 18:10:00,71.0,53.0,29.87,NW,319,1.0,11.0,53,0.00,,SKC,0.06,VWS V14.01,2013-09-13 22:10:00,
2013-09-13 18:15:00,70.9,53.4,29.87,NNE,27,6.0,11.0,54,0.00,,SKC,0.06,VWS V14.01,2013-09-13 22:15:00,
2013-09-13 18:20:00,70.2,52.3,29.87,North,6,4.0,11.0,53,0.00,,SKC,0.06,VWS V14.01,2013-09-13 22:20:00,
2013-09-13 18:25:00,69.9,52.5,29.87,NNW,339,2.0,11.0,54,0.00,,SKC,0.06,VWS V14.01,2013-09-13 22:25:00,
2013-09-13 18:30:00,69.2,52.8,29.87,North,9,1.0,2.0,56,0.00,,SKC,0.06,VWS V14.01,2013-09-13 22:30:00,
2013-09-13 18:35:00,69.2,53.3,29.87,NNW,333,2.0,6.0,57,0.00,,SKC,0.06,VWS V14.01,2013-09-13 22:35:00,
2013-09-13 18:40:00,69.0,53.2,29.87,NNW,334,4.0,7.0,57,0.00,,SKC,0.06,VWS V14.01,2013-09-13 22:40:00,
2013-09-13 18:45:00,68.8,53.0,29.87,NNW,327,3.0,7.0,57,0.00,,SKC,0.06,VWS V14.01,2013-09-13 22:45:00,
2013-09-13 18:50:00,68.9,53.5,29.87,North,349,5.0,8.0,58,0.00,,SKC,0.06,VWS V14.01,2013-09-13 22:50:00,
2013-09-13 18:55:00,68.7,52.9,29.87,NNW,338,5.0,9.0,57,0.00,,SKC,0.06,VWS V14.01,2013-09-13 22:55:00,
2013-09-13 19:00:00,68.7,52.9,29.87,NE,41,4.0,4.0,57,0.00,,SKC,0.06,VWS V14.01,2013-09-13 23:00:00,
2013-09-13 19:05:00,68.5,53.2,29.87,North,350,7.0,8.0,58,0.00,,SKC,0.06,VWS V14.01,2013-09-13 23:05:00,
2013-09-13 19:10:00,68.2,52.9,29.87,NW,316,4.0,8.0,58,0.00,,SKC,0.06,VWS V14.01,2013-09-13 23:10:00,
2013-09-13 19:15:00,67.4,53.0,29.88,NNE,25,5.0,8.0,60,0.00,,SKC,0.06,VWS V14.01,2013-09-13 23:15:00,
2013-09-13 19:20:00,66.6,53.2,29.88,NNW,327,1.0,8.0,62,0.00,,SKC,0.06,VWS V14.01,2013-09-13 23:20:00,
2013-09-13 19:25:00,65.8,53.3,29.88,NNW,330,3.0,8.0,64,0.00,,SKC,0.06,VWS V14.01,2013-09-13 23:25:00,
2013-09-13 19:30:00,65.2,53.2,29.88,NNW,334,1.0,1.0,65,0.00,,SKC,0.06,VWS V14.01,2013-09-13 23:30:00,
2013-09-13 19:35:00,64.7,53.5,29.88,NE,37,0.0,3.0,67,0.00,,SKC,0.06,VWS V14.01,2013-09-13 23:35:00,
2013-09-13 19:40:00,64.2,53.8,29.89,NE,43,0.0,3.0,69,0.00,,SKC,0.06,VWS V14.01,2013-09-13 23:40:00,
2013-09-13 19:45:00,63.6,53.7,29.89,NE,43,1.0,3.0,70,0.00,,SKC,0.06,VWS V14.01,2013-09-13 23:45:00,
2013-09-13 19:50:00,63.0,53.5,29.89,ENE,60,2.0,3.0,71,0.00,,SKC,0.06,VWS V14.01,2013-09-13 23:50:00,
2013-09-13 19:55:00,62.6,53.8,29.89,NE,39,3.0,3.0,73,0.00,,SKC,0.06,VWS V14.01,2013-09-13 23:55:00,
2013-09-13 20:00:00,62.4,53.3,29.89,North,11,2.0,2.0,72,0.00,,SKC,0.06,VWS V14.01,2013-09-14 00:00:00,
2013-09-13 20:05:00,62.2,53.5,29.89,NNW,340,2.0,3.0,73,0.00,,SKC,0.06,VWS V14.01,2013-09-14 00:05:00,
2013-09-13 20:10:00,62.0,53.6,29.90,NE,44,1.0,3.0,74,0.00,,SKC,0.06,VWS V14.01,2013-09-14 00:10:00,
2013-09-13 20:15:00,61.6,53.6,29.90,NE,46,1.0,3.0,75,0.00,,SKC,0.06,VWS V14.01,2013-09-14 00:15:00,
2013-09-13 20:20:00,61.2,53.6,29.90,NE,53,3.0,3.0,76,0.00,,SKC,0.06,VWS V14.01,2013-09-14 00:20:00,
2013-09-13 20:25:00,61.1,53.5,29.90,North,359,0.0,3.0,76,0.00,,SKC,0.06,VWS V14.01,2013-09-14 00:25:00,
2013-09-13 20:30:00,60.9,53.3,29.90,NNE,26,0.0,0.0,76,0.00,,SKC,0.06,VWS V14.01,2013-09-14 00:30:00,
2013-09-13 20:35:00,60.7,53.5,29.91,NNE,26,1.0,2.0,77,0.00,,SKC,0.06,VWS V14.01,2013-09-14 00:35:00,
2013-09-13 20:40:00,60.4,53.5,29.91,NNE,25,1.0,2.0,78,0.00,,SKC,0.06,VWS V14.01,2013-09-14 00:40:00,
2013-09-13 20:45:00,60.1,53.6,29.91,NNE,26,0.0,2.0,79,0.00,,SKC,0.06,VWS V14.01,2013-09-14 00:45:00,
2013-09-13 20:50:00,59.7,53.5,29.91,NNE,25,0.0,2.0,80,0.00,,SKC,0.06,VWS V14.01,2013-09-14 00:50:00,
2013-09-13 20:55:00,59.5,53.7,29.92,NNE,26,0.0,2.0,81,0.00,,SKC,0.06,VWS V14.01,2013-09-14 00:55:00,
2013-09-13 21:00:00,59.0,53.5,29.92,NNE,25,0.0,0.0,82,0.00,,SKC,0.06,VWS V14.01,2013-09-14 01:00:00,
2013-09-13 21:05:00,58.7,53.2,29.92,NNE,26,0.0,1.0,82,0.00,,SKC,0.06,VWS V14.01,2013-09-14 01:05:00,
2013-09-13 21:10:00,58.6,53.8,29.92,NNE,26,0.0,1.0,84,0.00,,SKC,0.06,VWS V14.01,2013-09-14 01:10:00,
2013-09-13 21:15:00,58.1,53.3,29.93,NNE,26,0.0,1.0,84,0.00,,SKC,0.06,VWS V14.01,2013-09-14 01:15:00,
2013-09-13 21:20:00,57.6,53.1,29.93,NNE,26,0.0,1.0,85,0.00,,SKC,0.06,VWS V14.01,2013-09-14 01:20:00,
2013-09-13 21:25:00,57.3,53.2,29.93,NNE,26,0.0,1.0,86,0.00,,SKC,0.06,VWS V14.01,2013-09-14 01:25:00,
2013-09-13 21:30:00,56.9,52.8,29.93,NNE,25,0.0,1.0,86,0.00,,SKC,0.06,VWS V14.01,2013-09-14 01:30:00,
2013-09-13 21:35:00,56.5,52.7,29.93,NNE,25,0.0,0.0,87,0.00,,SKC,0.06,VWS V14.01,2013-09-14 01:35:00,
2013-09-13 21:40:00,56.1,52.6,29.93,NNE,26,0.0,0.0,88,0.00,,SKC,0.06,VWS V14.01,2013-09-14 01:40:00,
2013-09-13 21:45:00,55.6,52.4,29.94,NNE,26,0.0,0.0,89,0.00,,SKC,0.06,VWS V14.01,2013-09-14 01:45:00,
2013-09-13 21:50:00,55.2,52.3,29.94,NNE,26,0.0,0.0,90,0.00,,SKC,0.06,VWS V14.01,2013-09-14 01:50:00,
2013-09-13 21:55:00,54.9,52.0,29.94,NNE,26,0.0,0.0,90,0.00,,SKC,0.06,VWS V14.01,2013-09-14 01:55:00,
2013-09-13 22:00:00,55.0,52.4,29.94,NNE,26,0.0,1.0,91,0.00,,SKC,0.06,VWS V14.01,2013-09-14 02:00:00,
2013-09-13 22:05:00,55.0,52.1,29.94,NNE,25,0.0,0.0,90,0.00,,SKC,0.06,VWS V14.01,2013-09-14 02:05:00,
2013-09-13 22:10:00,54.9,52.3,29.94,NNE,26,0.0,0.0,91,0.00,,SKC,0.06,VWS V14.01,2013-09-14 02:10:00,
2013-09-13 22:15:00,54.7,52.1,29.94,NNE,26,0.0,0.0,91,0.00,,SKC,0.06,VWS V14.01,2013-09-14 02:15:00,
2013-09-13 22:20:00,54.6,52.3,29.94,NNE,26,0.0,0.0,92,0.00,,SKC,0.06,VWS V14.01,2013-09-14 02:20:00,
2013-09-13 22:25:00,54.6,52.6,29.94,NNE,26,0.0,0.0,93,0.00,,SKC,0.06,VWS V14.01,2013-09-14 02:25:00,
2013-09-13 22:29:00,54.5,52.5,29.95,NNE,25,0.0,0.0,93,0.00,,SKC,0.06,VWS V14.01,2013-09-14 02:29:00,
2013-09-13 22:30:00,54.5,52.5,29.95,NNE,26,0.0,0.0,93,0.00,,SKC,0.06,VWS V14.01,2013-09-14 02:30:00,
2013-09-13 22:35:00,54.4,52.4,29.95,NNE,26,0.0,1.0,93,0.00,,SKC,0.06,VWS V14.01,2013-09-14 02:35:00,
2013-09-13 22:39:00,54.3,52.3,29.95,NNE,25,0.0,1.0,93,0.00,,SKC,0.06,VWS V14.01,2013-09-14 02:39:00,
2013-09-13 22:44:00,54.3,52.6,29.95,NNE,25,1.0,1.0,94,0.00,,SKC,0.06,VWS V14.01,2013-09-14 02:44:00,
2013-09-13 22:49:00,54.2,52.5,29.95,NNE,26,0.0,1.0,94,0.00,,SKC,0.06,VWS V14.01,2013-09-14 02:49:00,
2013-09-13 22:54:00,54.2,52.2,29.95,NNE,22,2.0,4.0,93,0.00,,SKC,0.06,VWS V14.01,2013-09-14 02:54:00,
2013-09-13 22:59:00,54.2,52.2,29.94,NNE,22,2.0,4.0,93,0.00,,SKC,0.06,VWS V14.01,2013-09-14 02:59:00,
2013-09-13 23:00:00,54.2,52.2,29.94,NNE,26,4.0,4.0,93,0.00,,SKC,0.06,VWS V14.01,2013-09-14 03:00:00,
2013-09-13 23:04:00,54.2,52.5,29.94,NNE,23,2.0,5.0,94,0.00,,SKC,0.06,VWS V14.01,2013-09-14 03:04:00,
2013-09-13 23:09:00,54.6,52.6,29.94,ENE,65,1.0,6.0,93,0.00,,SKC,0.06,VWS V14.01,2013-09-14 03:09:00,
2013-09-13 23:15:00,55.1,52.5,29.95,NE,37,1.0,6.0,91,0.00,,SKC,0.06,VWS V14.01,2013-09-14 03:15:00,
2013-09-13 23:20:00,55.2,52.3,29.95,NNE,26,1.0,6.0,90,0.00,,SKC,0.06,VWS V14.01,2013-09-14 03:20:00,
2013-09-13 23:25:00,55.2,52.3,29.95,NNE,33,0.0,6.0,90,0.00,,SKC,0.06,VWS V14.01,2013-09-14 03:25:00,
2013-09-13 23:30:00,55.0,52.1,29.95,NNE,33,1.0,6.0,90,0.00,,SKC,0.06,VWS V14.01,2013-09-14 03:30:00,
2013-09-13 23:35:00,54.9,52.0,29.95,NNE,33,0.0,1.0,90,0.00,,SKC,0.06,VWS V14.01,2013-09-14 03:35:00,
2013-09-13 23:40:00,54.5,51.9,29.95,NNE,33,1.0,1.0,91,0.00,,SKC,0.06,VWS V14.01,2013-09-14 03:40:00,
2013-09-13 23:45:00,54.3,52.0,29.96,NNE,33,0.0,1.0,92,0.00,,SKC,0.06,VWS V14.01,2013-09-14 03:45:00,
2013-09-13 23:50:00,54.2,51.9,29.96,NE,39,3.0,3.0,92,0.00,,SKC,0.06,VWS V14.01,2013-09-14 03:50:00,
2013-09-13 23:55:00,54.1,51.8,29.96,NNE,32,1.0,3.0,92,0.00,,SKC,0.06,VWS V14.01,2013-09-14 03:55:00,